Tracking 22124 objects as of 25-Jan-2021
HD Live streaming from Space Station
objects crossing your sky now

COSMOS 1761

Track COSMOS 1761 now!
COSMOS 1761 is classified as:


NORAD ID: 16849
Int'l Code: 1986-050A
Perigee: 5,742.5 km
Apogee: 34,673.0 km
Inclination: 69.7 °
Period: 718.7 minutes
Semi major axis: 26578 km
RCS: 12.1379 m2 (large)
Launch date: July 5, 1986
Source: Commonwealth of Independent States (former USSR) (CIS)
Launch site: PLESETSK MISSILE AND SPACE COMPLEX (PKMTR)
aabbcc
Your satellite tracking list
Your tracking list is empty




NASA's NSSDC Master Catalog

Two Line Element Set (TLE):
1 16849U 86050A   21025.17856931 -.00000589  00000-0  00000-0 0  9990
2 16849  69.6608 147.2278 5442404  55.8634 301.0696  2.00354923253159
Source of the keplerian elements: AFSPC